EW9135 Weather Reports


Display with metric or nautical units.
time (UTC)temp
F
wind
direction
speed
MPH
gust
MPH
rain 1hr
in
rain 24hr
in
rain mn
in
humidity
%
barometer
mb
20260506073153 55 248 0.0 0.0 0.00 0.00 0.00 42 1025.6
20260506072649 55 265 0.0 0.0 0.00 0.00 0.00 42 1025.3
20260506072142 54 235 0.0 0.0 0.00 0.00 0.00 44 1025.3
20260506071637 54 245 0.0 0.0 0.00 0.00 0.00 45 1025.6
20260506071133 54 270 0.0 0.0 0.00 0.00 0.00 44 1025.6
20260506070626 54 275 0.0 0.0 0.00 0.00 0.00 45 1025.3
20260506070121 55 253 0.0 0.0 0.00 0.00 0.00 44 1025.3
20260506062038 56 258 0.0 0.0 0.00 0.00 0.00 43 1024.8
20260506061535 56 265 0.0 0.0 0.00 0.00 0.00 43 1025.3
20260506061529 56 293 0.0 0.0 0.00 0.00 0.00 43 1024.8
20260506060522 57 303 0.0 0.0 0.00 0.00 0.00 43 1024.8
20260506050926 59 248 0.0 0.0 0.00 0.00 0.00 39 1024.1
20260506050419 59 262 0.0 0.0 0.00 0.00 0.00 39 1024.1
20260506044905 60 274 0.0 0.0 0.00 0.00 0.00 38 1024.1
20260506044859 60 235 0.0 0.0 0.00 0.00 0.00 36 1023.8
20260506043854 60 243 0.0 0.0 0.00 0.00 0.00 36 1024.1
20260506043349 61 241 0.0 0.0 0.00 0.00 0.00 36 1024.1
20260506043344 61 271 0.0 0.0 0.00 0.00 0.00 36 1024.1
20260506042338 61 277 0.0 0.0 0.00 0.00 0.00 36 1023.8
20260506041831 61 271 0.0 0.0 0.00 0.00 0.00 34 1023.5
20260506041326 62 283 0.0 0.0 0.00 0.00 0.00 33 1023.5
20260506040823 62 231 0.0 0.0 0.00 0.00 0.00 33 1023.5
20260506040315 62 273 0.0 0.0 0.00 0.00 0.00 33 1023.5
20260506035810 62 237 0.0 0.0 0.00 0.00 0.00 32 1023.5
20260506035307 62 208 0.0 0.0 0.00 0.00 0.00 32 1023.5
20260506035301 62 234 0.0 0.0 0.00 0.00 0.00 32 1023.5
20260506034254 62 294 0.0 0.0 0.00 0.00 0.00 32 1023.5
20260506033750 62 150 0.0 0.0 0.00 0.00 0.00 32 1023.5
20260506033244 62 241 0.0 0.0 0.00 0.00 0.00 32 1023.5
20260506032738 62 210 0.0 0.0 0.00 0.00 0.00 32 1023.1
20260506032235 62 272 0.0 1.0 0.00 0.00 0.00 32 1023.1
20260506031729 62 198 0.0 0.0 0.00 0.00 0.00 32 1023.1
20260506031723 62 270 0.0 0.0 0.00 0.00 0.00 32 1023.1
20260506030719 62 246 0.0 0.0 0.00 0.00 0.00 32 1023.1
20260506030713 62 256 0.0 0.0 0.00 0.00 0.00 32 1023.1
20260506025706 62 164 0.0 0.0 0.00 0.00 0.00 32 1022.8
20260506025202 62 220 0.0 0.0 0.00 0.00 0.00 32 1023.1
20260506024656 62 225 0.0 0.0 0.00 0.00 0.00 32 1022.8
20260506024153 63 256 0.0 0.0 0.00 0.00 0.00 32 1022.8
20260506023647 63 186 0.0 0.0 0.00 0.00 0.00 31 1022.8
20260506023140 63 221 0.0 0.0 0.00 0.00 0.00 31 1022.8
20260506022635 63 248 0.0 0.0 0.00 0.00 0.00 31 1022.8
20260506022131 64 320 0.0 1.0 0.00 0.00 0.00 31 1022.8
20260506021624 64 0 0.0 1.0 0.00 0.00 0.00 31 1022.4
20260506021119 64 228 0.0 0.0 0.00 0.00 0.00 31 1022.4
20260506020615 64 258 0.0 0.0 0.00 0.00 0.00 31 1022.4
20260506020109 64 243 0.0 0.0 0.00 0.00 0.00 31 1022.4
20260506015604 64 242 0.0 0.0 0.00 0.00 0.00 30 1022.1
20260506015100 64 248 0.0 0.0 0.00 0.00 0.00 30 1022.1
20260506014553 64 251 0.0 0.0 0.00 0.00 0.00 30 1022.4
20260506014048 65 243 0.0 0.0 0.00 0.00 0.00 30 1022.4
20260506013543 65 251 0.0 0.0 0.00 0.00 0.00 32 1022.4
20260506013037 65 210 0.0 0.0 0.00 0.00 0.00 32 1022.4
20260506012532 66 214 0.0 0.0 0.00 0.00 0.00 32 1022.4
20260506012029 66 196 0.0 0.0 0.00 0.00 0.00 31 1022.4
20260506011521 67 220 0.0 0.0 0.00 0.00 0.00 32 1022.4
20260506011015 67 216 0.0 0.0 0.00 0.00 0.00 31 1022.1
20260506010512 67 213 0.0 0.0 0.00 0.00 0.00 31 1022.4
20260506010505 67 244 0.0 0.0 0.00 0.00 0.00 31 1022.4
20260506005459 67 227 0.0 0.0 0.00 0.00 0.00 31 1022.1
20260506004955 67 229 0.0 0.0 0.00 0.00 0.00 32 1022.4
20260506004449 67 215 0.0 0.0 0.00 0.00 0.00 31 1022.1
20260506003944 67 247 0.0 0.0 0.00 0.00 0.00 30 1022.1
20260506003440 66 253 0.0 0.0 0.00 0.00 0.00 30 1022.1
20260506002932 66 242 0.0 0.0 0.00 0.00 0.00 31 1022.1
20260506002428 66 217 0.0 1.0 0.00 0.00 0.00 31 1022.1
20260506001924 66 225 0.0 1.0 0.00 0.00 0.00 33 1022.1
20260506001417 66 276 0.0 1.0 0.00 0.00 0.00 32 1021.8
20260506000912 66 244 0.0 0.0 0.00 0.00 0.00 32 1022.1
20260506000409 66 187 0.0 0.0 0.00 0.00 0.00 33 1022.1
20260505235902 67 156 0.0 0.0 0.00 0.00 0.00 31 1022.1
20260505235356 67 247 0.0 0.0 0.00 0.00 0.00 31 1022.1
20260505234852 67 273 0.0 0.0 0.00 0.00 0.00 31 1022.1
20260505234346 67 193 0.0 0.0 0.00 0.00 0.00 31 1022.1
20260505234341 67 253 0.0 0.0 0.00 0.00 0.00 31 1022.1
20260505233336 67 258 0.0 0.0 0.00 0.00 0.00 31 1022.1
20260505232830 67 242 0.0 0.0 0.00 0.00 0.00 30 1022.1
20260505232325 68 349 0.0 0.0 0.00 0.00 0.00 30 1022.1
20260505231820 67 250 0.0 0.0 0.00 0.00 0.00 31 1022.1
20260505231314 67 287 0.0 0.0 0.00 0.00 0.00 29 1021.8
20260505230809 67 231 0.0 0.0 0.00 0.00 0.00 31 1022.1
20260505230305 67 172 0.0 0.0 0.00 0.00 0.00 31 1022.1
20260505230259 67 255 0.0 0.0 0.00 0.00 0.00 30 1022.1
20260505225253 67 245 0.0 0.0 0.00 0.00 0.00 29 1022.1
20260505224748 67 247 0.0 0.0 0.00 0.00 0.00 30 1022.4
20260505224243 67 239 0.0 0.0 0.00 0.00 0.00 31 1022.4
20260505223738 67 204 0.0 0.0 0.00 0.00 0.00 31 1022.1
20260505223233 67 223 0.0 0.0 0.00 0.00 0.00 31 1022.1
20260505222726 67 255 0.0 0.0 0.00 0.00 0.00 31 1022.4
20260505222221 67 336 0.0 0.0 0.00 0.00 0.00 31 1022.4
20260505221717 67 229 0.0 0.0 0.00 0.00 0.00 30 1022.4
20260505221209 67 251 0.0 0.0 0.00 0.00 0.00 31 1022.4
20260505220706 67 238 0.0 0.0 0.00 0.00 0.00 31 1022.4
20260505220701 67 246 0.0 0.0 0.00 0.00 0.00 31 1022.4
20260505215653 67 359 0.0 0.0 0.00 0.00 0.00 28 1022.4
20260505215148 67 234 0.0 0.0 0.00 0.00 0.00 28 1022.4
20260505215140 67 178 0.0 0.0 0.00 0.00 0.00 31 1022.4
20260505214745 67 253 0.0 0.0 0.00 0.00 0.00 30 1022.4
20260505213632 67 288 0.0 0.0 0.00 0.00 0.00 29 1022.8
20260505213129 67 281 0.0 0.0 0.00 0.00 0.00 31 1022.4
20260505212622 67 277 0.0 0.0 0.00 0.00 0.00 31 1022.4
20260505212116 67 16 0.0 0.0 0.00 0.00 0.00 31 1022.4
20260505211612 66 240 0.0 0.0 0.00 0.00 0.00 29 1022.4
20260505211106 66 208 0.0 0.0 0.00 0.00 0.00 27 1022.8
20260505210601 66 228 0.0 0.0 0.00 0.00 0.00 30 1022.8
20260505210057 65 197 0.0 0.0 0.00 0.00 0.00 31 1022.8
20260505205550 65 44 0.0 0.0 0.00 0.00 0.00 31 1022.8
20260505205045 65 258 0.0 0.0 0.00 0.00 0.00 32 1022.8
20260505204542 65 279 0.0 0.0 0.00 0.00 0.00 32 1022.8
20260505204536 65 192 0.0 0.0 0.00 0.00 0.00 32 1022.8
20260505203528 65 241 0.0 0.0 0.00 0.00 0.00 33 1023.1
20260505203025 65 268 0.0 0.0 0.00 0.00 0.00 32 1022.8
20260505202518 65 288 0.0 0.0 0.00 0.00 0.00 32 1022.8
20260505202511 65 21 0.0 0.0 0.00 0.00 0.00 32 1023.1
20260505202116 65 261 0.0 0.0 0.00 0.00 0.00 31 1023.1
20260505201003 65 275 0.0 0.0 0.00 0.00 0.00 32 1023.1
20260505200458 65 297 0.0 1.0 0.00 0.00 0.00 33 1022.8
20260505195953 66 9 0.0 1.0 0.00 0.00 0.00 30 1022.8
20260505195448 66 281 0.0 0.0 0.00 0.00 0.00 32 1022.8
20260505195439 66 242 0.0 0.0 0.00 0.00 0.00 29 1023.1
20260505195044 66 258 0.0 0.0 0.00 0.00 0.00 30 1022.8
20260505193931 65 265 0.0 0.0 0.00 0.00 0.00 27 1023.1
20260505193425 65 243 0.0 0.0 0.00 0.00 0.00 27 1023.1
20260505192921 64 23 0.0 0.0 0.00 0.00 0.00 26 1022.8
20260505192416 63 221 0.0 0.0 0.00 0.00 0.00 30 1023.1
20260505192411 62 255 0.0 1.0 0.00 0.00 0.00 30 1022.8
20260505191405 62 232 0.0 1.0 0.00 0.00 0.00 29 1022.8
20260505190858 61 232 0.0 0.0 0.00 0.00 0.00 33 1022.8
20260505190353 61 284 0.0 0.0 0.00 0.00 0.00 31 1022.8
20260505185849 61 224 0.0 0.0 0.00 0.00 0.00 32 1022.8
20260505185343 61 6 0.0 0.0 0.00 0.00 0.00 33 1022.8
20260505184837 61 245 0.0 0.0 0.00 0.00 0.00 32 1023.1
20260505184332 61 325 0.0 0.0 0.00 0.00 0.00 33 1022.8
20260505183826 61 255 0.0 0.0 0.00 0.00 0.00 34 1023.1
20260505183324 61 249 0.0 0.0 0.00 0.00 0.00 33 1022.8
20260505183318 61 282 0.0 0.0 0.00 0.00 0.00 33 1022.8
20260505182311 60 223 0.0 0.0 0.00 0.00 0.00 33 1022.8
20260505181805 59 327 0.0 1.0 0.00 0.00 0.00 34 1022.4
20260505181301 58 188 0.0 1.0 0.00 0.00 0.00 34 1022.8
20260505180755 58 272 0.0 0.0 0.00 0.00 0.00 36 1022.8
20260505180249 57 242 0.0 0.0 0.00 0.00 0.00 38 1022.4
20260505175745 57 230 0.0 0.0 0.00 0.00 0.00 42 1022.8
20260505175239 56 322 0.0 0.0 0.00 0.00 0.00 47 1023.1
20260505174734 56 275 0.0 2.0 0.00 0.00 0.00 51 1022.4
20260505174229 56 233 0.0 2.0 0.00 0.00 0.00 59 1022.8
20260505173723 56 182 0.0 0.0 0.00 0.00 0.00 73 1022.4
20260505173220 56 304 0.0 0.0 0.00 0.00 0.00 74 1022.4
20260505173214 56 331 0.0 0.0 0.00 0.00 0.00 77 1022.4
20260505172207 56 226 0.0 0.0 0.00 0.00 0.00 80 1022.4
20260505171705 56 306 0.0 0.0 0.00 0.00 0.00 80 1022.4
20260505171659 56 269 0.0 0.0 0.00 0.00 0.00 81 1022.4
20260505170652 56 18 0.0 0.0 0.00 0.00 0.00 82 1022.4
20260505170146 56 214 0.0 0.0 0.00 0.00 0.00 82 1022.4
20260505165643 55 222 0.0 0.0 0.00 0.00 0.00 82 1022.4
20260505165636 55 280 0.0 0.0 0.00 0.00 0.00 83 1022.4
20260505164633 55 251 0.0 0.0 0.00 0.00 0.00 83 1022.4
20260505164627 55 356 0.0 0.0 0.00 0.00 0.00 83 1022.4
20260505163620 55 266 0.0 0.0 0.00 0.00 0.00 83 1022.4
20260505163115 55 243 0.0 0.0 0.00 0.00 0.00 83 1022.4
20260505162611 55 316 0.0 0.0 0.00 0.00 0.00 83 1022.4
20260505162104 55 215 0.0 0.0 0.00 0.00 0.00 84 1022.4
20260505161558 55 251 0.0 0.0 0.00 0.00 0.00 84 1022.4
20260505161054 55 226 0.0 0.0 0.00 0.00 0.00 84 1022.4
20260505160548 54 228 0.0 0.0 0.00 0.00 0.00 84 1022.4
20260505153010 54 206 0.0 0.0 0.00 0.00 0.00 84 1022.1
20260505152507 54 231 0.0 0.0 0.00 0.00 0.00 84 1022.1
20260505152000 54 191 0.0 0.0 0.00 0.00 0.00 84 1022.1
20260505151456 54 237 0.0 0.0 0.00 0.00 0.00 84 1021.8
20260505151451 54 275 0.0 0.0 0.00 0.00 0.00 84 1021.8
20260505150444 54 272 0.0 0.0 0.00 0.00 0.00 84 1021.8
20260505140342 54 249 0.0 0.0 0.00 0.00 0.00 84 1021.1
20260505130238 54 234 0.0 0.0 0.00 0.00 0.00 83 1021.1
20260505124721 53 230 0.0 0.0 0.00 0.00 0.00 83 1020.7
20260505124714 53 204 0.0 0.0 0.00 0.00 0.00 83 1020.7
20260505124318 53 230 0.0 0.0 0.00 0.00 0.00 82 1020.7
20260505123206 53 198 0.0 0.0 0.00 0.00 0.00 83 1020.7
20260505122702 53 208 0.0 0.0 0.00 0.00 0.00 82 1021.1
20260505122656 53 202 0.0 0.0 0.00 0.00 0.00 83 1020.7
20260505121649 53 208 0.0 0.0 0.00 0.00 0.00 83 1021.1
20260505121144 53 199 0.0 0.0 0.00 0.00 0.00 83 1021.1
20260505120641 53 201 0.0 0.0 0.00 0.00 0.00 82 1021.1
20260505120134 53 223 0.0 0.0 0.00 0.00 0.00 82 1020.7
20260505115628 53 227 0.0 0.0 0.00 0.00 0.00 82 1021.1
20260505115124 53 219 0.0 0.0 0.00 0.00 0.00 82 1021.1
20260505115114 53 237 0.0 0.0 0.00 0.00 0.00 82 1021.4
20260505114720 53 236 0.0 0.0 0.00 0.00 0.00 82 1021.4
20260505113609 53 226 0.0 0.0 0.00 0.00 0.00 82 1021.1
20260505113102 53 226 0.0 0.0 0.00 0.00 0.00 82 1021.4
20260505112557 53 209 0.0 0.0 0.00 0.00 0.00 82 1021.4
20260505112053 53 226 0.0 0.0 0.00 0.00 0.00 82 1021.1
20260505111546 53 217 0.0 0.0 0.00 0.00 0.00 82 1021.4
20260505111041 53 213 0.0 0.0 0.00 0.00 0.00 82 1021.4
20260505110537 53 225 0.0 0.0 0.00 0.00 0.00 81 1021.4
20260505101955 0 0.0 0.0 0.00 0.00 0.00 1021.8
20260505101946 53 235 0.0 0.0 0.00 0.00 0.00 79 1021.4
20260505100941 53 235 0.0 0.0 0.00 0.00 0.00 79 1021.8
20260505100439 53 235 0.0 0.0 0.00 0.00 0.00 79 1021.4
20260505100432 53 235 0.0 0.0 0.00 0.00 0.00 79 1021.4
20260505095428 53 252 0.0 0.0 0.00 0.00 0.00 79 1021.4
20260505094924 53 211 0.0 0.0 0.00 0.00 0.00 79 1021.8
20260505094918 53 228 0.0 0.0 0.00 0.00 0.00 79 1021.4
20260505093911 53 203 0.0 0.0 0.00 0.00 0.00 79 1021.8
20260505093408 53 214 0.0 0.0 0.00 0.00 0.00 79 1021.8
20260505092900 53 227 0.0 0.0 0.00 0.00 0.00 79 1022.1
20260505092358 53 221 0.0 0.0 0.00 0.00 0.00 79 1021.8
20260505092353 53 226 0.0 0.0 0.00 0.00 0.00 79 1022.1
20260505092009 53 225 0.0 0.0 0.00 0.00 0.00 79 1021.8
20260505091345 53 264 0.0 0.0 0.00 0.00 0.00 79 1021.8
20260505091334 53 242 0.0 0.0 0.00 0.00 0.00 79 1022.1
20260505090439 53 246 0.0 0.0 0.00 0.00 0.00 79 1022.1
20260505085325 53 205 0.0 0.0 0.00 0.00 0.00 79 1021.8
20260505084820 53 184 0.0 0.0 0.00 0.00 0.00 79 1021.8
20260505084314 53 218 0.0 0.0 0.00 0.00 0.00 79 1021.8
20260505083808 53 233 0.0 0.0 0.00 0.00 0.00 79 1022.1
20260505083305 53 245 0.0 0.0 0.00 0.00 0.00 79 1021.8
20260505083258 53 234 0.0 0.0 0.00 0.00 0.00 78 1022.1
20260505082253 53 228 0.0 0.0 0.00 0.00 0.00 77 1022.4
20260505081748 53 230 0.0 0.0 0.00 0.00 0.00 77 1022.1
20260505081242 53 258 0.0 0.0 0.00 0.00 0.00 77 1022.4
20260505080736 53 218 0.0 0.0 0.00 0.00 0.00 76 1022.4